Location: Detroit
(42.3310°N, 83.0460°W)
Time: 00:43:18
(UTC-04:00)

A-11 Canister half - Pass Details

Date: 14 February 2023
Orbit: 1526 x 1682 km, 47.3° (Epoch: 20 March)

Event Time Altitude Azimuth Distance (km) Brightness Sun altitude
Rises 10:04:42 0° 296° (WNW) 4,687 11.0 23.4°
Reaches altitude 10° 10:07:53 10° 290° (WNW) 3,711 10.6 23.8°
Maximum altitude 10:16:34 45° 222° (SW) 2,025 10.0 24.9°
Drops below altitude 10° 10:25:28 10° 154° (SSE) 3,792 12.7 25.9°
Sets 10:28:46 0° 148° (SSE) 4,798 12.9 26.3°
